When you browse on this site, cookies collect data to enhance your experience and personalize the content and advertising you see.
Visit our Privacy Policy to learn more. By continuing to use the site, you agree to this use of cookies and data.
  • In France
  • List of Countries
  • For 7 days
  • Water Temperature
  • Satellite Maps
  • Weather Map
  • Weather Widgets
  • user-avatar
    Login

    Hourly Weather Khulna

    Today, 25 May, Saturday

    Time Temperature Precipitation Wind Pressure Humidity
    00:00 +32°C° 0 mm 2 mps 751 mmHg 73%
    01:00 +33°C° 0 mm 3 mps 751 mmHg 74%
    02:00 +33°C° 0 mm 3 mps 751 mmHg 75%
    03:00 +33°C° 0 mm 4 mps 751 mmHg 76%
    04:00 +33°C° 0 mm 4 mps 751 mmHg 75%
    05:00 +33°C° 0 mm 4 mps 751 mmHg 75%
    06:00 +33°C° 0 mm 3 mps 751 mmHg 72%
    07:00 +33°C° 0 mm 3 mps 751 mmHg 71%
    08:00 +34°C° 0 mm 4 mps 752 mmHg 70%
    09:00 +34°C° 0 mm 5 mps 752 mmHg 69%
    10:00 +35°C° 0 mm 6 mps 752 mmHg 67%
    11:00 +35°C° 0 mm 6 mps 752 mmHg 65%
    12:00 +38°C° 0 mm 7 mps 752 mmHg 60%
    13:00 +38°C° 0 mm 7 mps 751 mmHg 58%
    14:00 +39°C° 0 mm 7 mps 750 mmHg 55%
    15:00 +40°C° 0 mm 7 mps 750 mmHg 53%
    16:00 +39°C° 0 mm 7 mps 749 mmHg 56%
    17:00 +38°C° 0 mm 7 mps 748 mmHg 59%
    18:00 +36°C° 0 mm 7 mps 748 mmHg 62%
    19:00 +35°C° 0.9 mm 6 mps 749 mmHg 67%
    20:00 +34°C° 0.9 mm 5 mps 750 mmHg 72%
    21:00 +33°C° 0.9 mm 5 mps 751 mmHg 77%
    22:00 +32°C° 0.5 mm 5 mps 751 mmHg 78%
    23:00 +32°C° 0.5 mm 5 mps 751 mmHg 79%

    Tomorrow, 26 May, Sunday

    Time Temperature Precipitation Wind Pressure Humidity
    00:00 +32°C° 0.5 mm 5 mps 751 mmHg 80%
    01:00 +32°C° 0 mm 5 mps 750 mmHg 82%
    02:00 +32°C° 0 mm 4 mps 750 mmHg 83%
    03:00 +31°C° 0 mm 3 mps 750 mmHg 85%
    04:00 +31°C° 0 mm 3 mps 750 mmHg 85%
    05:00 +31°C° 0 mm 3 mps 750 mmHg 86%
    06:00 +31°C° 0 mm 2 mps 750 mmHg 86%
    07:00 +32°C° 0 mm 2 mps 751 mmHg 80%
    08:00 +34°C° 0 mm 2 mps 751 mmHg 74%
    09:00 +35°C° 0 mm 2 mps 752 mmHg 69%
    10:00 +37°C° 0 mm 2 mps 752 mmHg 63%
    11:00 +38°C° 0 mm 3 mps 752 mmHg 58%
    12:00 +40°C° 0 mm 3 mps 752 mmHg 52%
    13:00 +41°C° 0.1 mm 4 mps 751 mmHg 50%
    14:00 +42°C° 0.1 mm 4 mps 750 mmHg 47%
    15:00 +43°C° 0.1 mm 5 mps 750 mmHg 45%
    16:00 +41°C° 3.7 mm 5 mps 750 mmHg 53%
    17:00 +39°C° 3.7 mm 5 mps 750 mmHg 60%
    18:00 +36°C° 3.7 mm 5 mps 749 mmHg 68%
    19:00 +35°C° 0.2 mm 5 mps 750 mmHg 71%
    20:00 +34°C° 0.2 mm 5 mps 750 mmHg 75%
    21:00 +33°C° 0.2 mm 5 mps 751 mmHg 78%
    22:00 +33°C° 0 mm 5 mps 751 mmHg 80%
    23:00 +33°C° 0 mm 5 mps 751 mmHg 81%

    Day after tomorrow, 27 May, Monday

    Time Temperature Precipitation Wind Pressure Humidity
    00:00 +32°C° 0 mm 4 mps 751 mmHg 83%
    01:00 +32°C° 0 mm 4 mps 751 mmHg 84%
    02:00 +31°C° 0 mm 3 mps 750 mmHg 86%
    03:00 +31°C° 0 mm 3 mps 750 mmHg 87%
    04:00 +31°C° 0 mm 3 mps 750 mmHg 85%
    05:00 +31°C° 0 mm 3 mps 751 mmHg 83%
    06:00 +33°C° 0 mm 3 mps 751 mmHg 81%
    07:00 +33°C° 0 mm 3 mps 751 mmHg 77%
    08:00 +34°C° 0 mm 4 mps 752 mmHg 73%
    09:00 +35°C° 0 mm 4 mps 752 mmHg 69%
    10:00 +37°C° 0 mm 4 mps 752 mmHg 61%
    11:00 +40°C° 0 mm 4 mps 752 mmHg 53%
    12:00 +42°C° 0 mm 5 mps 752 mmHg 44%
    13:00 +43°C° 0 mm 5 mps 751 mmHg 41%
    14:00 +45°C° 0 mm 5 mps 750 mmHg 38%
    15:00 +45°C° 0 mm 5 mps 750 mmHg 35%
    16:00 +43°C° 0.1 mm 5 mps 749 mmHg 41%
    17:00 +41°C° 0.1 mm 5 mps 749 mmHg 46%
    18:00 +40°C° 0.1 mm 4 mps 749 mmHg 51%
    19:00 +37°C° 0 mm 5 mps 749 mmHg 59%
    20:00 +36°C° 0 mm 5 mps 750 mmHg 67%
    21:00 +34°C° 0 mm 5 mps 751 mmHg 75%
    22:00 +34°C° 0 mm 5 mps 751 mmHg 77%
    23:00 +33°C° 0 mm 5 mps 751 mmHg 79%

    28 May, Tuesday

    Time Temperature Precipitation Wind Pressure Humidity
    00:00 +33°C° 0 mm 5 mps 751 mmHg 82%
    01:00 +33°C° 0 mm 4 mps 751 mmHg 82%
    02:00 +33°C° 0 mm 4 mps 751 mmHg 82%
    03:00 +33°C° 0 mm 4 mps 750 mmHg 82%
    04:00 +33°C° 0 mm 4 mps 751 mmHg 80%
    05:00 +33°C° 0 mm 4 mps 751 mmHg 79%
    06:00 +33°C° 0 mm 4 mps 751 mmHg 78%
    07:00 +35°C° 0 mm 4 mps 752 mmHg 71%
    08:00 +36°C° 0 mm 4 mps 752 mmHg 64%
    09:00 +38°C° 0 mm 4 mps 753 mmHg 57%
    10:00 +41°C° 0 mm 4 mps 752 mmHg 50%
    11:00 +42°C° 0 mm 5 mps 752 mmHg 43%
    12:00 +45°C° 0 mm 5 mps 752 mmHg 36%
    13:00 +45°C° 0 mm 5 mps 751 mmHg 36%
    14:00 +45°C° 0 mm 6 mps 750 mmHg 35%
    15:00 +46°C° 0 mm 6 mps 749 mmHg 35%
    16:00 +44°C° 0 mm 6 mps 749 mmHg 42%
    17:00 +41°C° 0 mm 6 mps 749 mmHg 49%
    18:00 +39°C° 0 mm 7 mps 749 mmHg 56%
    19:00 +38°C° 0 mm 6 mps 749 mmHg 62%
    20:00 +35°C° 0 mm 6 mps 750 mmHg 68%
    21:00 +34°C° 0 mm 6 mps 750 mmHg 74%
    22:00 +34°C° 0 mm 6 mps 750 mmHg 75%
    23:00 +33°C° 0 mm 6 mps 750 mmHg 77%

    29 May, Wednesday

    Time Temperature Precipitation Wind Pressure Humidity
    00:00 +33°C° 0 mm 6 mps 750 mmHg 78%
    01:00 +33°C° 0 mm 5 mps 750 mmHg 78%
    02:00 +33°C° 0 mm 4 mps 750 mmHg 78%
    03:00 +33°C° 0 mm 3 mps 750 mmHg 78%
    04:00 +33°C° 0 mm 3 mps 750 mmHg 79%
    05:00 +33°C° 0 mm 3 mps 751 mmHg 80%
    06:00 +33°C° 0 mm 3 mps 751 mmHg 81%
    07:00 +33°C° 0 mm 4 mps 751 mmHg 78%
    08:00 +34°C° 0 mm 4 mps 752 mmHg 75%
    09:00 +34°C° 0 mm 5 mps 752 mmHg 72%
    10:00 +37°C° 0 mm 5 mps 752 mmHg 63%
    11:00 +40°C° 0 mm 5 mps 751 mmHg 55%
    12:00 +42°C° 0 mm 6 mps 751 mmHg 46%
    13:00 +42°C° 0 mm 6 mps 750 mmHg 44%
    14:00 +44°C° 0 mm 6 mps 749 mmHg 43%
    15:00 +44°C° 0 mm 6 mps 749 mmHg 41%
    16:00 +42°C° 0 mm 6 mps 748 mmHg 46%
    17:00 +40°C° 0 mm 6 mps 748 mmHg 51%
    18:00 +39°C° 0 mm 6 mps 748 mmHg 56%
    19:00 +38°C° 0 mm 6 mps 749 mmHg 62%
    20:00 +35°C° 0 mm 7 mps 749 mmHg 68%
    21:00 +34°C° 0 mm 7 mps 750 mmHg 73%
    22:00 +34°C° 0 mm 6 mps 750 mmHg 74%
    23:00 +33°C° 0 mm 6 mps 750 mmHg 75%

    30 May, Thursday

    Time Temperature Precipitation Wind Pressure Humidity
    00:00 +33°C° 0 mm 5 mps 750 mmHg 76%
    01:00 +33°C° 0 mm 5 mps 750 mmHg 77%
    02:00 +33°C° 0 mm 4 mps 750 mmHg 77%
    03:00 +33°C° 0 mm 4 mps 750 mmHg 78%
    04:00 +33°C° 0.1 mm 4 mps 750 mmHg 78%
    05:00 +33°C° 0.1 mm 4 mps 750 mmHg 77%
    06:00 +33°C° 0.1 mm 4 mps 750 mmHg 77%
    07:00 +35°C° 0 mm 5 mps 751 mmHg 71%
    08:00 +36°C° 0 mm 5 mps 751 mmHg 65%
    09:00 +39°C° 0 mm 6 mps 751 mmHg 58%
    10:00 +40°C° 0 mm 6 mps 751 mmHg 53%
    11:00 +41°C° 0 mm 6 mps 751 mmHg 48%
    12:00 +44°C° 0 mm 6 mps 750 mmHg 43%
    13:00 +42°C° 0 mm 6 mps 750 mmHg 45%
    14:00 +43°C° 0 mm 7 mps 749 mmHg 48%
    15:00 +41°C° 0 mm 7 mps 749 mmHg 50%
    16:00 +40°C° 0 mm 7 mps 748 mmHg 54%
    17:00 +38°C° 0 mm 7 mps 748 mmHg 58%
    18:00 +36°C° 0 mm 7 mps 748 mmHg 62%
    19:00 +35°C° 0 mm 7 mps 749 mmHg 65%
    20:00 +34°C° 0 mm 6 mps 749 mmHg 68%
    21:00 +34°C° 0 mm 6 mps 750 mmHg 72%
    22:00 +33°C° 0 mm 6 mps 750 mmHg 73%
    23:00 +33°C° 0 mm 6 mps 750 mmHg 75%
    Show more